Tracking 19795 objects as of 20-Jul-2019
HD Live streaming from Space Station
objects crossing your sky now

INSAT 2A

Track INSAT 2A now!
INSAT 2A is classified as:


NORAD ID: 22027
Int'l Code: 1992-041A
Perigee: 35,779.2 km
Apogee: 35,827.3 km
Inclination: 14.8 °
Period: 1,436.6 minutes
Semi major axis: 42174 km
RCS: 1.9952 m2 (large)
Launch date: July 9, 1992
Source: India (IND)
Launch site: FRENCH GUIANA (FRGUI)
aabbcc
Your satellite tracking list
Your tracking list is empty




NASA's NSSDC Master Catalog

Two Line Element Set (TLE):
1 22027U 92041A   19200.78753740 -.00000101 +00000-0 +00000-0 0  9995
2 22027 014.8126 012.5952 0005700 256.8721 116.7249 01.00237784098766
Source of the keplerian elements: AFSPC